Find Kosmos-2275

NORAD ID: 23043 Int'l Des: 1994-021 Owner: VKS Country: RU Constellation: GLONASS operational
MEOCIRCULAR

現在のビュー

3D地球を読み込み中...

Kosmos-2275について

説明を読み込み中...

次回通過

Passes for default location (London). Set your location on the main map for personalized predictions.

高度履歴

Loading altitude history...

軌道要素

1 23043U 94021A 26151.41740860 -.00000058 00000-0 00000+0 0 9996
2 23043 64.0052 301.3933 0020401 186.7448 148.4161 2.13099601249874
Epoch: May 31, 2026 • Age: 11 hours

現在のステータス

高度 19181.5 km
速度 3.95 km/s
衛星直下点 -15.77°S, 81.51°E
打ち上げ日 Apr 11, 1994
運用期間 32.1 years
タイプ other

技術仕様

分類 Payload
質量 1300.00 kg
乾燥質量 1200.00 kg
総質量 1300.00 kg
長さ 4.00 m
直径 1.50 m
スパン 7.80 m
形状 Cyl + Ant + 2 Pan
製造者 POL
バスタイプ Uragan
フェーズステータス In Orbit
所有者/国 VKS/RU

Most Searched